AA6MV Weather Reports


time (UTC)temp
C
wind
direction
speed
KPH
gust
KPH
rain 1hr
cm
rain 24hr
cm
rain mn
cm
humidity
%
barometer
mb
20260504024508 21 337 6.4 16.1 0.00 0.00 0.00 26 1003.8
20260504023004 21 345 8.0 17.7 0.00 0.00 0.00 25 1003.6
20260504021542 21 12 9.7 19.3 0.00 0.00 0.00 23 1003.3
20260504020042 22 1 6.4 17.7 0.00 0.00 0.00 23 1003.2
20260504014535 22 1 6.4 16.1 0.00 0.00 0.00 23 1003.1
20260504013035 22 335 4.8 19.3 0.00 0.00 0.00 24 1003.5
20260504011639 23 8 8.0 19.3 0.00 0.00 0.00 24 1003.5
20260504010138 23 314 6.4 25.7 0.00 0.00 0.00 24 1003.5
20260504004530 23 338 3.2 16.1 0.00 0.00 0.00 25 1003.3
20260504003039 23 360 8.0 17.7 0.00 0.00 0.00 25 1003.6
20260504001528 24 295 4.8 14.5 0.00 0.00 0.00 25 1003.2
20260504000049 24 1 6.4 14.5 0.00 0.00 0.00 25 1003.4
20260503234508 24 35 4.8 19.3 0.00 0.00 0.00 25 1003.5
20260503233007 25 11 9.7 20.9 0.00 0.00 0.00 24 1003.6
20260503231501 25 318 4.8 16.1 0.00 0.00 0.00 23 1003.9
20260503224635 25 314 3.2 16.1 0.00 0.00 0.00 23 1004.0
20260503223013 26 305 1.6 17.7 0.00 0.00 0.00 23 1004.0
20260503221510 26 314 3.2 17.7 0.00 0.00 0.00 22 1004.1
20260503220015 25 23 3.2 20.9 0.00 0.00 0.00 24 1004.4
20260503214509 25 1 4.8 19.3 0.00 0.00 0.00 26 1004.3
20260503213104 26 330 1.6 14.5 0.00 0.00 0.00 26 1004.5
20260503213006 26 273 0.0 16.1 0.00 0.00 0.00 26 1004.6
20260503211608 26 317 3.2 11.3 0.00 0.00 0.00 27 1004.8
20260503210050 26 34 1.6 14.5 0.00 0.00 0.00 26 1005.2
20260503203038 25 339 4.8 12.9 0.00 0.00 0.00 26 1005.5
20260503201512 25 332 0.0 11.3 0.00 0.00 0.00 33 1005.7
20260503200027 24 195 8.0 16.1 0.00 0.00 0.00 35 1005.9
20260503194523 24 276 8.0 17.7 0.00 0.00 0.00 34 1006.1
20260503193022 25 332 4.8 16.1 0.00 0.00 0.00 34 1006.3
20260503190021 25 314 0.0 19.3 0.00 0.00 0.00 34 1006.6
20260503184519 24 348 1.6 12.9 0.00 0.00 0.00 36 1007.0
20260503183031 23 235 3.2 14.5 0.00 0.00 0.00 37 1007.3
20260503181528 23 279 8.0 17.7 0.00 0.00 0.00 37 1007.8
20260503180028 22 189 4.8 14.5 0.00 0.00 0.00 39 1008.0
20260503174519 22 249 4.8 17.7 0.00 0.00 0.00 42 1008.2
20260503173046 22 248 8.0 16.1 0.00 0.00 0.00 41 1008.3
20260503171536 22 295 9.7 17.7 0.00 0.00 0.00 41 1008.2
20260503170131 21 209 8.0 17.7 0.00 0.00 0.00 42 1008.0
20260503120110 16 248 8.0 19.3 0.00 0.00 0.00 53 1007.1
20260503081517 16 259 12.9 22.5 0.00 0.00 0.00 51 1008.3
20260503071529 17 263 11.3 29.0 0.00 0.00 0.00 50 1008.2
20260503070127 17 228 12.9 24.1 0.00 0.00 0.00 50 1008.2
20260503054540 17 269 11.3 24.1 0.00 0.00 0.00 49 1007.9
20260503053016 17 250 9.7 25.7 0.00 0.00 0.00 49 1008.0
20260503051510 18 255 12.9 24.1 0.00 0.00 0.00 48 1007.8
20260503050007 18 243 12.9 27.4 0.00 0.00 0.00 48 1007.8
20260503044523 18 262 14.5 25.7 0.00 0.00 0.00 47 1007.7
20260503043029 18 229 12.9 24.1 0.00 0.00 0.00 46 1007.6
20260503041528 18 229 14.5 25.7 0.00 0.00 0.00 46 1007.3
20260503040032 18 275 9.7 24.1 0.00 0.00 0.00 45 1007.2
20260503034524 18 237 9.7 24.1 0.00 0.00 0.00 45 1007.3
20260503033018 18 218 9.7 20.9 0.00 0.00 0.00 44 1007.1
20260503031516 18 266 6.4 17.7 0.00 0.00 0.00 44 1006.9
20260503030012 18 257 6.4 12.9 0.00 0.00 0.00 44 1006.8